Time,TemperatureF,DewpointF,PressureIn,WindDirection,WindDirectionDegrees,WindSpeedMPH,WindSpeedGustMPH,Humidity,HourlyPrecipIn,Conditions,Clouds,dailyrainin,SoftwareType,DateUTC
2013-03-02 00:02:00,24.0,16.0,-100.00,WNW,300,3.0,3.0,68,0.00,,,0.00,,2013-03-02 00:02:00,
2013-03-02 00:11:00,23.0,14.0,-100.00,WNW,300,3.0,4.0,69,0.00,,,0.00,,2013-03-02 00:11:00,
2013-03-02 00:21:00,23.0,14.0,-100.00,NW,320,1.0,3.0,71,0.00,,,0.00,,2013-03-02 00:21:00,
2013-03-02 00:32:00,22.0,14.0,-100.00,NW,315,2.0,2.0,72,0.00,,,0.00,,2013-03-02 00:32:00,
2013-03-02 00:42:00,21.0,14.0,-100.00,NNW,330,2.0,2.0,73,0.00,,,0.00,,2013-03-02 00:42:00,
2013-03-02 00:52:00,20.0,14.0,-100.00,NNW,335,2.0,2.0,74,0.00,,,0.00,,2013-03-02 00:52:00,
2013-03-02 01:01:00,20.0,14.0,-100.00,NW,310,3.0,4.0,76,0.00,,,0.00,,2013-03-02 01:01:00,
2013-03-02 01:11:00,19.0,14.0,-100.00,NW,310,3.0,4.0,76,0.00,,,0.00,,2013-03-02 01:11:00,
2013-03-02 01:21:00,19.0,14.0,-100.00,NW,315,3.0,4.0,78,0.00,,,0.00,,2013-03-02 01:21:00,
2013-03-02 01:31:00,18.0,12.0,-100.00,NW,315,4.0,4.0,80,0.00,,,0.00,,2013-03-02 01:31:00,
2013-03-02 01:41:00,17.0,12.0,-100.00,NW,315,3.0,4.0,81,0.00,,,0.00,,2013-03-02 01:41:00,
2013-03-02 01:51:00,16.0,12.0,-100.00,NW,325,3.0,4.0,83,0.00,,,0.00,,2013-03-02 01:51:00,
2013-03-02 02:01:00,17.0,12.0,-100.00,NNW,330,4.0,4.0,84,0.00,,,0.00,,2013-03-02 02:01:00,
2013-03-02 02:11:00,16.0,12.0,-100.00,NW,320,4.0,5.0,85,0.00,,,0.00,,2013-03-02 02:11:00,
2013-03-02 02:21:00,15.0,10.0,-100.00,NW,325,4.0,5.0,86,0.00,,,0.00,,2013-03-02 02:21:00,
2013-03-02 02:32:00,14.0,10.0,-100.00,NW,325,5.0,5.0,87,0.00,,,0.00,,2013-03-02 02:32:00,
2013-03-02 02:41:00,14.0,10.0,-100.00,NW,325,4.0,5.0,88,0.00,,,0.00,,2013-03-02 02:41:00,
2013-03-02 02:52:00,14.0,12.0,-100.00,NNW,340,4.0,4.0,90,0.00,,,0.00,,2013-03-02 02:52:00,
2013-03-02 03:01:00,13.0,10.0,-100.00,NNW,335,4.0,4.0,90,0.00,,,0.00,,2013-03-02 03:01:00,
2013-03-02 03:11:00,12.0,10.0,-100.00,NNW,340,4.0,4.0,91,0.00,,,0.00,,2013-03-02 03:11:00,
2013-03-02 03:21:00,12.0,10.0,-100.00,NW,325,4.0,5.0,93,0.00,,,0.00,,2013-03-02 03:21:00,
2013-03-02 03:32:00,12.0,10.0,-100.00,NW,325,4.0,4.0,93,0.00,,,0.00,,2013-03-02 03:32:00,
2013-03-02 03:41:00,10.0,9.0,-100.00,NNW,335,3.0,4.0,94,0.00,,,0.00,,2013-03-02 03:41:00,
2013-03-02 03:52:00,11.0,10.0,-100.00,NW,325,4.0,5.0,95,0.00,,,0.00,,2013-03-02 03:52:00,
2013-03-02 04:01:00,9.0,9.0,-100.00,NW,325,3.0,4.0,96,0.00,,,0.00,,2013-03-02 04:01:00,
2013-03-02 04:11:00,8.0,7.0,-100.00,NNW,330,4.0,4.0,96,0.00,,,0.00,,2013-03-02 04:11:00,
2013-03-02 04:21:00,9.0,9.0,-100.00,NW,315,2.0,4.0,96,0.00,,,0.00,,2013-03-02 04:21:00,
2013-03-02 04:32:00,8.0,7.0,-100.00,NNW,330,2.0,4.0,97,0.00,,,0.00,,2013-03-02 04:32:00,
2013-03-02 04:41:00,7.0,7.0,-100.00,NW,325,6.0,6.0,97,0.00,,,0.00,,2013-03-02 04:41:00,
2013-03-02 04:51:00,8.0,7.0,-100.00,NNW,330,4.0,6.0,97,0.00,,,0.00,,2013-03-02 04:51:00,
2013-03-02 05:01:00,7.0,7.0,-100.00,NW,320,3.0,4.0,97,0.00,,,0.00,,2013-03-02 05:01:00,
2013-03-02 05:12:00,6.0,5.0,-100.00,NW,315,3.0,4.0,97,0.00,,,0.00,,2013-03-02 05:12:00,
2013-03-02 05:22:00,7.0,7.0,-100.00,NW,320,1.0,1.0,97,0.00,,,0.00,,2013-03-02 05:22:00,
2013-03-02 05:32:00,6.0,5.0,-100.00,NW,315,4.0,4.0,97,0.00,,,0.00,,2013-03-02 05:32:00,
2013-03-02 05:41:00,5.0,5.0,-100.00,NW,320,6.0,6.0,97,0.00,,,0.00,,2013-03-02 05:41:00,
2013-03-02 06:01:00,4.0,3.0,-100.00,North,350,3.0,4.0,97,0.00,,,0.00,,2013-03-02 06:01:00,
2013-03-02 06:11:00,4.0,3.0,-100.00,NW,325,4.0,5.0,97,0.00,,,0.00,,2013-03-02 06:11:00,
2013-03-02 06:21:00,3.0,3.0,-100.00,NW,325,4.0,6.0,97,0.00,,,0.00,,2013-03-02 06:21:00,
2013-03-02 06:31:00,2.0,1.0,-100.00,NW,325,6.0,6.0,97,0.00,,,0.00,,2013-03-02 06:31:00,
2013-03-02 06:41:00,3.0,3.0,-100.00,NW,325,4.0,6.0,97,0.00,,,0.00,,2013-03-02 06:41:00,
2013-03-02 06:51:00,3.0,1.0,-100.00,NNW,330,4.0,6.0,97,0.00,,,0.00,,2013-03-02 06:51:00,
2013-03-02 07:01:00,3.0,1.0,-100.00,NNW,335,5.0,6.0,97,0.00,,,0.00,,2013-03-02 07:01:00,
2013-03-02 07:11:00,2.0,1.0,-100.00,NNW,340,4.0,6.0,97,0.00,,,0.00,,2013-03-02 07:11:00,
2013-03-02 07:21:00,1.0,0.0,-100.00,NNE,25,4.0,4.0,97,0.00,,,0.00,,2013-03-02 07:21:00,
2013-03-02 07:32:00,0.0,0.0,-100.00,NNE,30,4.0,4.0,97,0.00,,,0.00,,2013-03-02 07:32:00,
2013-03-02 07:42:00,0.0,0.0,-100.00,North,0,2.0,4.0,97,0.00,,,0.00,,2013-03-02 07:42:00,
2013-03-02 07:51:00,1.0,0.0,-100.00,North,5,2.0,3.0,97,0.00,,,0.00,,2013-03-02 07:51:00,
2013-03-02 08:01:00,1.0,0.0,-100.00,NNW,340,3.0,4.0,97,0.00,,,0.00,,2013-03-02 08:01:00,
2013-03-02 08:21:00,0.0,0.0,-100.00,NNW,340,5.0,6.0,97,0.00,,,0.00,,2013-03-02 08:21:00,
2013-03-02 08:32:00,-1.0,-2.0,-100.00,NW,320,6.0,7.0,97,0.00,,,0.00,,2013-03-02 08:32:00,
2013-03-02 08:42:00,1.0,0.0,-100.00,NNW,330,7.0,7.0,97,0.00,,,0.00,,2013-03-02 08:42:00,
2013-03-02 08:52:00,1.0,0.0,-100.00,North,5,3.0,7.0,97,0.00,,,0.00,,2013-03-02 08:52:00,
2013-03-02 09:01:00,0.0,0.0,-100.00,North,0,4.0,4.0,97,0.00,,,0.00,,2013-03-02 09:01:00,
2013-03-02 09:11:00,-2.0,-2.0,-100.00,North,350,4.0,4.0,97,0.00,,,0.00,,2013-03-02 09:11:00,
2013-03-02 09:21:00,-3.0,-4.0,-100.00,NNW,345,4.0,5.0,97,0.00,,,0.00,,2013-03-02 09:21:00,
2013-03-02 09:32:00,-2.0,-2.0,-100.00,North,0,3.0,4.0,97,0.00,,,0.00,,2013-03-02 09:32:00,
2013-03-02 09:42:00,-3.0,-4.0,-100.00,NNE,25,4.0,4.0,97,0.00,,,0.00,,2013-03-02 09:42:00,
2013-03-02 09:51:00,-3.0,-4.0,-100.00,NNE,20,4.0,4.0,97,0.00,,,0.00,,2013-03-02 09:51:00,
2013-03-02 10:01:00,-3.0,-4.0,-100.00,NNE,30,3.0,4.0,97,0.00,,,0.00,,2013-03-02 10:01:00,
2013-03-02 10:15:00,-4.0,-4.0,-100.00,North,10,3.0,4.0,97,0.00,,,0.00,,2013-03-02 10:15:00,
2013-03-02 10:21:00,-3.0,-4.0,-100.00,North,10,3.0,4.0,97,0.00,,,0.00,,2013-03-02 10:21:00,
2013-03-02 10:32:00,-3.0,-4.0,-100.00,North,0,2.0,3.0,97,0.00,,,0.00,,2013-03-02 10:32:00,
2013-03-02 10:42:00,-3.0,-4.0,-100.00,NNE,30,2.0,2.0,97,0.00,,,0.00,,2013-03-02 10:42:00,
2013-03-02 10:51:00,-2.0,-2.0,-100.00,NNE,15,2.0,2.0,97,0.00,,,0.00,,2013-03-02 10:51:00,
2013-03-02 11:01:00,-3.0,-4.0,-100.00,NNE,15,2.0,3.0,97,0.00,,,0.00,,2013-03-02 11:01:00,
2013-03-02 11:11:00,-3.0,-4.0,-100.00,North,350,3.0,4.0,97,0.00,,,0.00,,2013-03-02 11:11:00,
2013-03-02 11:21:00,-3.0,-4.0,-100.00,NNW,340,4.0,4.0,97,0.00,,,0.00,,2013-03-02 11:21:00,
2013-03-02 11:32:00,-3.0,-4.0,-100.00,North,0,3.0,4.0,97,0.00,,,0.00,,2013-03-02 11:32:00,
2013-03-02 11:52:00,-4.0,-6.0,-100.00,North,350,3.0,4.0,96,0.00,,,0.00,,2013-03-02 11:52:00,
2013-03-02 12:02:00,-4.0,-6.0,-100.00,North,0,3.0,4.0,96,0.00,,,0.00,,2013-03-02 12:02:00,
2013-03-02 12:11:00,-6.0,-6.0,-100.00,North,0,3.0,4.0,96,0.00,,,0.00,,2013-03-02 12:11:00,
2013-03-02 12:21:00,-6.0,-8.0,-100.00,North,0,2.0,3.0,96,0.00,,,0.00,,2013-03-02 12:21:00,
2013-03-02 12:32:00,-6.0,-6.0,-100.00,North,5,2.0,3.0,96,0.00,,,0.00,,2013-03-02 12:32:00,
2013-03-02 12:43:00,-6.0,-6.0,-100.00,NNE,15,2.0,3.0,96,0.00,,,0.00,,2013-03-02 12:43:00,
2013-03-02 12:53:00,-5.0,-6.0,-100.00,NNE,15,2.0,2.0,96,0.00,,,0.00,,2013-03-02 12:53:00,
2013-03-02 13:01:00,-5.0,-6.0,-100.00,NE,45,4.0,4.0,96,0.00,,,0.00,,2013-03-02 13:01:00,
2013-03-02 13:11:00,-5.0,-6.0,-100.00,NE,50,4.0,4.0,96,0.00,,,0.00,,2013-03-02 13:11:00,
2013-03-02 13:21:00,-5.0,-6.0,-100.00,NE,50,4.0,4.0,96,0.00,,,0.00,,2013-03-02 13:21:00,
2013-03-02 13:32:00,-3.0,-4.0,-100.00,ENE,60,4.0,4.0,96,0.00,,,0.00,,2013-03-02 13:32:00,
2013-03-02 13:41:00,-4.0,-4.0,-100.00,ENE,65,4.0,4.0,96,0.00,,,0.00,,2013-03-02 13:41:00,
2013-03-02 13:52:00,-3.0,-4.0,-100.00,ENE,75,4.0,4.0,96,0.00,,,0.00,,2013-03-02 13:52:00,
2013-03-02 14:01:00,-2.0,-2.0,-100.00,NE,45,2.0,4.0,96,0.00,,,0.00,,2013-03-02 14:01:00,
2013-03-02 14:11:00,-2.0,-2.0,-100.00,NE,55,2.0,2.0,96,0.00,,,0.00,,2013-03-02 14:11:00,
2013-03-02 14:21:00,2.0,1.0,-100.00,ESE,115,1.0,2.0,96,0.00,,,0.00,,2013-03-02 14:21:00,
2013-03-02 14:32:00,2.0,1.0,-100.00,South,190,0.0,1.0,96,0.00,,,0.00,,2013-03-02 14:32:00,
2013-03-02 14:42:00,2.0,1.0,-100.00,SW,215,0.0,1.0,96,0.00,,,0.00,,2013-03-02 14:42:00,
2013-03-02 14:52:00,5.0,5.0,-100.00,ESE,115,1.0,1.0,96,0.00,,,0.00,,2013-03-02 14:52:00,
2013-03-02 15:02:00,6.0,5.0,-100.00,East,85,1.0,2.0,96,0.00,,,0.00,,2013-03-02 15:02:00,
2013-03-02 15:11:00,7.0,5.0,-100.00,East,80,0.0,2.0,96,0.00,,,0.00,,2013-03-02 15:11:00,
2013-03-02 15:21:00,7.0,7.0,-100.00,SSW,210,2.0,2.0,96,0.00,,,0.00,,2013-03-02 15:21:00,
2013-03-02 15:32:00,9.0,9.0,-100.00,SSW,200,1.0,2.0,96,0.00,,,0.00,,2013-03-02 15:32:00,
2013-03-02 15:41:00,10.0,9.0,-100.00,SW,215,1.0,2.0,96,0.00,,,0.00,,2013-03-02 15:41:00,
2013-03-02 15:52:00,12.0,10.0,-100.00,South,190,1.0,2.0,94,0.00,,,0.00,,2013-03-02 15:52:00,
2013-03-02 16:01:00,14.0,12.0,-100.00,North,10,0.0,1.0,93,0.00,,,0.00,,2013-03-02 16:01:00,
2013-03-02 16:11:00,13.0,10.0,-100.00,NE,50,1.0,1.0,91,0.00,,,0.00,,2013-03-02 16:11:00,
2013-03-02 16:21:00,12.0,10.0,-100.00,ESE,110,0.0,1.0,91,0.00,,,0.00,,2013-03-02 16:21:00,
2013-03-02 16:31:00,11.0,9.0,-100.00,WNW,295,2.0,3.0,91,0.00,,,0.00,,2013-03-02 16:31:00,
2013-03-02 16:41:00,14.0,12.0,-100.00,WSW,245,1.0,3.0,91,0.00,,,0.00,,2013-03-02 16:41:00,
2013-03-02 16:51:00,18.0,16.0,-100.00,SSW,210,1.0,2.0,87,0.00,,,0.00,,2013-03-02 16:51:00,
2013-03-02 17:01:00,21.0,16.0,-100.00,South,175,2.0,4.0,81,0.00,,,0.00,,2013-03-02 17:01:00,
2013-03-02 17:11:00,23.0,18.0,-100.00,SSE,155,1.0,3.0,79,0.00,,,0.00,,2013-03-02 17:11:00,
2013-03-02 17:21:00,26.0,18.0,-100.00,ESE,120,1.0,3.0,69,0.00,,,0.00,,2013-03-02 17:21:00,
2013-03-02 17:32:00,22.0,14.0,-100.00,SE,125,6.0,7.0,70,0.00,,,0.00,,2013-03-02 17:32:00,
2013-03-02 17:42:00,20.0,14.0,-100.00,SE,130,6.0,8.0,74,0.00,,,0.00,,2013-03-02 17:42:00,
2013-03-02 17:52:00,20.0,14.0,-100.00,ESE,120,6.0,7.0,77,0.00,,,0.00,,2013-03-02 17:52:00,
2013-03-02 18:02:00,20.0,14.0,-100.00,SE,130,8.0,9.0,79,0.00,,,0.00,,2013-03-02 18:02:00,
2013-03-02 18:11:00,20.0,14.0,-100.00,SE,125,9.0,11.0,80,0.00,,,0.00,,2013-03-02 18:11:00,
2013-03-02 18:22:00,20.0,16.0,-100.00,SE,125,9.0,11.0,81,0.00,,,0.00,,2013-03-02 18:22:00,
2013-03-02 18:32:00,20.0,16.0,-100.00,SE,130,9.0,12.0,82,0.00,,,0.00,,2013-03-02 18:32:00,
2013-03-02 18:42:00,21.0,16.0,-100.00,SE,130,8.0,11.0,82,0.00,,,0.00,,2013-03-02 18:42:00,
2013-03-02 18:52:00,21.0,16.0,-100.00,SE,145,9.0,12.0,82,0.00,,,0.00,,2013-03-02 18:52:00,
2013-03-02 19:01:00,20.0,16.0,-100.00,SE,145,10.0,12.0,82,0.00,,,0.00,,2013-03-02 19:01:00,
2013-03-02 19:11:00,21.0,16.0,-100.00,SE,145,9.0,12.0,82,0.00,,,0.00,,2013-03-02 19:11:00,
2013-03-02 19:21:00,22.0,16.0,-100.00,SE,145,11.0,12.0,79,0.00,,,0.00,,2013-03-02 19:21:00,
2013-03-02 19:32:00,23.0,18.0,-100.00,SE,125,7.0,10.0,78,0.00,,,0.00,,2013-03-02 19:32:00,
2013-03-02 19:42:00,22.0,16.0,-100.00,SE,125,9.0,11.0,76,0.00,,,0.00,,2013-03-02 19:42:00,
2013-03-02 19:52:00,23.0,16.0,-100.00,SE,125,9.0,11.0,75,0.00,,,0.00,,2013-03-02 19:52:00,
2013-03-02 20:01:00,23.0,16.0,-100.00,SE,130,9.0,10.0,74,0.00,,,0.00,,2013-03-02 20:01:00,
2013-03-02 20:11:00,22.0,16.0,-100.00,SE,130,9.0,11.0,74,0.00,,,0.00,,2013-03-02 20:11:00,
2013-03-02 20:21:00,23.0,16.0,-100.00,SE,125,7.0,10.0,74,0.00,,,0.00,,2013-03-02 20:21:00,
2013-03-02 20:32:00,22.0,16.0,-100.00,SE,140,8.0,10.0,73,0.00,,,0.00,,2013-03-02 20:32:00,
2013-03-02 20:42:00,22.0,14.0,-100.00,SE,140,9.0,10.0,71,0.00,,,0.00,,2013-03-02 20:42:00,
2013-03-02 20:52:00,22.0,14.0,-100.00,SE,130,9.0,10.0,70,0.00,,,0.00,,2013-03-02 20:52:00,
2013-03-02 21:02:00,22.0,14.0,-100.00,SE,125,9.0,11.0,69,0.00,,,0.00,,2013-03-02 21:02:00,
2013-03-02 21:11:00,22.0,14.0,-100.00,SE,130,9.0,11.0,69,0.00,,,0.00,,2013-03-02 21:11:00,
2013-03-02 21:22:00,22.0,14.0,-100.00,SE,130,9.0,12.0,70,0.00,,,0.00,,2013-03-02 21:22:00,
2013-03-02 21:32:00,22.0,14.0,-100.00,SE,125,11.0,13.0,70,0.00,,,0.00,,2013-03-02 21:32:00,
2013-03-02 21:42:00,22.0,14.0,-100.00,SE,135,8.0,11.0,70,0.00,,,0.00,,2013-03-02 21:42:00,
2013-03-02 21:52:00,22.0,14.0,-100.00,SE,145,8.0,11.0,69,0.00,,,0.00,,2013-03-02 21:52:00,
2013-03-02 22:02:00,23.0,14.0,-100.00,SE,145,9.0,11.0,69,0.00,,,0.00,,2013-03-02 22:02:00,
2013-03-02 22:11:00,24.0,16.0,-100.00,SE,135,8.0,11.0,69,0.00,,,0.00,,2013-03-02 22:11:00,
2013-03-02 22:21:00,22.0,14.0,-100.00,SE,145,9.0,12.0,68,0.00,,,0.00,,2013-03-02 22:21:00,
2013-03-02 22:32:00,22.0,12.0,-100.00,SE,145,9.0,11.0,68,0.00,,,0.00,,2013-03-02 22:32:00,
2013-03-02 22:42:00,22.0,12.0,-100.00,SSE,150,10.0,11.0,68,0.00,,,0.00,,2013-03-02 22:42:00,
2013-03-02 22:51:00,22.0,14.0,-100.00,SE,140,9.0,13.0,67,0.00,,,0.00,,2013-03-02 22:51:00,
2013-03-02 23:01:00,22.0,12.0,-100.00,SE,140,9.0,12.0,67,0.00,,,0.00,,2013-03-02 23:01:00,
2013-03-02 23:11:00,22.0,12.0,-100.00,SE,140,9.0,12.0,68,0.00,,,0.00,,2013-03-02 23:11:00,
2013-03-02 23:21:00,22.0,14.0,-100.00,SE,145,8.0,9.0,68,0.00,,,0.00,,2013-03-02 23:21:00,
2013-03-02 23:32:00,22.0,14.0,-100.00,SSE,150,9.0,10.0,69,0.00,,,0.00,,2013-03-02 23:32:00,
2013-03-02 23:42:00,22.0,14.0,-100.00,SE,145,8.0,11.0,70,0.00,,,0.00,,2013-03-02 23:42:00,
2013-03-02 23:52:00,22.0,14.0,-100.00,SE,140,7.0,10.0,72,0.00,,,0.00,,2013-03-02 23:52:00,